User: anonymous   Login
Location: Muenchen
(48.1800°N, 11.5800°E)
Time: 23:24:51
(UTC+02:00)
Language:

Iridium 37 - Orbit

View from above orbital plane
View from above orbital plane
View from above satellite
View from above satellite

Ground track
Ground track

The orbit data is extracted from the following two-line orbital elements,

1 24968U 97056D   15181.26154621  .00000029  00000-0  34606-5 0  9994
2 24968 086.3971 258.9261 0002271 094.1819 265.9636 14.34216917929636
Epoch (UTC): 30 June 2015 06:16:37
Eccentricity: 0.0002271
inclination: 86.3971°
perigee height: 776 km
apogee height: 779 km
right ascension of ascending node: 258.9261°
argument of perigee: 94.1819°
revolutions per day: 14.34216917
mean anomaly at epoch: 265.9636°
orbit number at epoch: 92963

The dashed part of the orbit path shows where the satellite is in the earth's shadow,  

DLR